Weather in Brussels

Belgium     50°51′15″N   4°21′07″E
temp.,
°C
wind,
m/s
gust,
m/s
humid.,
%
clouds,
%
prec.,
mm/h
press.,
hPa
HPBL,
m
23 april, fri
fri2323:00+6ne487045 0.0 1028283
02:00+4ne48775 0.0 1028242
05:00+2ene36885 0.0 1028146
08:00+3ene36803 0.0 1029236
11:00+9ene46505 0.0 1030728
14:00+13ene45375 0.0 10291145
17:00+14ne45365 0.0 10281319
20:00+11ne36555 0.0 1027362
24 april, sat
sat2423:00+7ene367013 0.0 1028145
02:00+5ene387668 0.0 1028183
05:00+4ene388465 0.0 1028198
08:00+5ene41074100 0.0 1028304
11:00+9ene575389 0.0 1027683
14:00+13ne56455 0.0 10261256
17:00+14ne56467 0.0 10251461
20:00+11ne476086 0.0 1025656
25 april, sun
sun2523:00+7ne41073100 0.0 1027377
02:00+5ne510780 0.0 1027396
05:00+3ne410810 0.0 1028358
08:00+3ne510771 0.0 1028469
11:00+8ne68544 0.0 1027878
14:00+12ne57420 0.0 10261223
17:00+13ne574084 0.0 10251444
20:00+11nne585685 0.0 1024649
26 april, mon
mon2623:00+6ne5116980 0.0 1025412
02:00+4ne410793 0.0 1024320
05:00+2ne49860 0.0 1024253
08:00+3ne47815 0.0 1023285
11:00+9ne575953 0.0 1022776
14:00+13ene564159 0.0 10191269
17:00+14ene56385 0.0 10171438
20:00+11ne485170 0.0 1015513
27 april, tue
tue2723:00+8ne4106388 0.0 1015291
02:00+6ne3673100 0.0 1013150
05:00+4ene2378100 0.0 101156
08:00+6ene1266100 0.0 1010107
11:00+12ne34455 0.0 1009660
14:00+15ene34365 0.0 10071626
17:00+15ne333642 0.0 10062130
20:00+12ne4650100 0.0 1006535